SCP
0 0 0 0 0 0 0 0 0 0 0 0 0 0 0 0 0 0 -0 -0 -0 -0 -0 -0 -0 -0 -0 -0 -0 -0 -0 0 0 0 0 0 0 0 0 -0 -0 -0 -0
0 0 0 0 0 0 0 0 0 0 0 0 0 0 0 0 0 0 0 -0 -0 -0 -0 -0 -0 -0 -0 -0 -0 -0 -0 0 0 0 0 0 0 0 0 0 -0 -0 -0
0 0 0 0 0 0 0 0 0 0 0 0 0 0 0 0 0 0 0 0 0 -0 -0 -0 -0 -0 -0 -0 -0 -0 -0 -0 -0 0 0 0 0 0 0 0 0 0 -0
0 0 0 0 0 0 0 0 0 0 0 0 0 0 0 0 0 0 0 0 0 0 0 -0 -0 -0 -0 -0 -0 -0 -0 -0 -0 -0 -0 0 0 0 0 0 0 0 0
0 0 0 0 0 0 0 0 0 0 0 0 0 0 0 0 0 0 0 0 0 0 0 0 -0 -0 -0 -0 -0 -0 -0 -0 -0 -0 -0 -0 0 0 0 0 0 0 0
0 0 0 0 0 0 0 0 0 0 0 0 0 0 0 0 0 0 0 0 0 0 0 0 0 -0 -0 -0 -0 -0 -0 -0 -0 -0 -0 -0 -0 0 0 0 0 0 0
0 0 0 0 0 0 0 0 0 0 0 0 0 0 0 0 0 0 0 0 0 0 0 0 0 0 -0 -0 -0 -0 -0 -0 -0 0 -0 -0 -0 -0 0 0 0 0 0
0 0 0 0 0 0 0 0 0 0 0 0 0 0 0 0 0 0 0 0 0 0 0 -0 -0 -0 -0 -0 -0 -0 -0 -0 0 0 0 -0 -0 -0 -0 0 0 0 0
0 0 0 0 0 0 0 0 0 0 0 0 0 0 0 0 0 0 0 0 0 0 0 0 -0 -0 0 0 0 -0 -0 -0 0 0 0 0 -0 -0 -0 0 0 0 0
0 0 0 0 0 0 0 0 0 0 0 0 0 0 0 0 0 0 0 0 0 0 0 0 0 0 0 0 0 0 -0 -0 0 0 0 0 -0 -0 -0 -0 0 0 0
-0 -0 -0 0 0 0 0 0 0 0 0 0 0 0 0 0 0 0 -0 0 0 0 0 0 0 0 0 0 0 0 0 0 0 0 0 0 0 0 -0 -0 0 0 0
-0 -0 -0 -0 0 0 0 0 0 0 0 0 0 0 0 0 0 0 -0 -0 0 0 0 0 0 0 0 0 0 0 0 0 0 0 0 0 0 0 0 0 0 0 0
-0 -0 -0 -0 0 0 0 0 0 0 0 0 0 0 0 0 0 0 -0 -0 -0 0 0 0 0 0 0 0 0 0 0 0 0 0 0 0 0 0 0 0 0 0 0
-0 -0 -0 -0 0 0 0 0 0 0 0 0 0 0 0 0 0 0 0 -0 -0 0 0 0 0 0 0 0 0 0 0 0 0 0 0 0 0 0 0 0 0 0 0
0 0 0 0 0 0 0 0 0 0 0 0 0 0 0 0 0 0 0 0 0 0 0 0 0 0 0 0 0 0 0 0 0 0 0 0 0 0 0 0 0 0 0
0 0 0 0 0 0 0 0 0 0 0 0 0 0 0 0 0 0 0 0 0 0 0 0 0 0 0 0 0 0 0 0 0 0 0 0 0 0 0 0 0 0 0
1 1 1 1 1 1 1 0 0 0 0 0 0 0 0 0 0 0 0 0 0 0 0 0 0 0 0 0 0 0 0 0 0 0 0 0 0 0 0 0 1 1 1
1 1 1 1 1 1 1 1 1 1 1 1 0 0 0 0 0 0 0 0 0 0 0 0 0 0 0 0 0 0 0 0 0 0 0 0 0 0 1 1 1 1 1
1 1 1 1 1 1 1 1 1 1 1 1 0 0 0 0 0 0 0 0 0 0 0 0 0 0 0 0 0 0 0 0 0 0 0 0 0 0 1 1 1 1 1
0 1 1 1 1 1 1 1 1 1 1 1 1 1 0 0 0 0 0 0 0 0 0 0 0 0 0 0 0 0 0 0 0 0 0 0 0 0 0 1 1 1 1
0 0 0 0 1 1 1 1 1 1 1 1 1 1 1 1 1 1 0 0 0 0 0 0 0 0 0 0 0 0 0 0 0 0 0 0 0 0 0 0 1 1 1
0 0 0 0 0 0 1 1 1 1 1 1 1 1 1 1 1 0 0 0 0 0 0 0 0 0 0 0 0 0 0 0 0 0 0 0 0 0 0 0 0 0 0
0 0 0 0 0 0 0 0 1 1 1 1 1 1 1 0 0 0 0 0 0 0 0 0 0 0 0 0 0 0 0 0 0 0 0 0 0 0 0 0 0 0 0
0 0 0 0 0 0 0 0 0 0 0 0 0 0 0 0 0 0 0 0 0 0 0 0 0 0 0 0 0 0 0 0 0 0 0 0 0 0 0 0 0 0 0
0 0 0 0 0 0 0 0 0 0 0 0 0 0 0 0 0 0 0 0 0 0 0 0 0 0 0 0 0 0 0 0 0 0 0 0 0 0 0 0 0 0 0
0 0 0 0 0 0 0 0 0 0 0 0 0 0 0 0 0 0 0 0 0 0 0 0 0 0 0 0 0 0 0 0 0 0 0 0 0 0 0 0 0 0 0
Wind_Speed
7 9 16 18 17 16 15 14 14 13 12 13 14 14 13 12 12 10 10 9 8 7 6 6 7 7 7 8 8 8 7 8 7 8 7 7 8 8 8 9 9 7 10
11 10 16 17 17 16 15 15 14 13 12 12 13 13 13 12 11 10 9 8 8 6 6 4 5 6 6 6 6 6 6 5 5 6 6 5 5 5 6 7 8 6 7
13 11 14 16 17 16 15 14 14 13 13 12 12 12 12 12 11 10 9 8 7 6 5 4 4 4 5 5 5 4 4 4 2 3 4 3 3 2 3 5 6 6 6
12 10 12 18 17 17 16 14 13 13 12 12 11 11 11 10 10 10 8 7 6 5 5 4 3 3 3 3 4 4 3 2 2 2 2 1 1 1 2 4 5 6 6
9 9 12 19 19 18 17 15 14 14 13 11 11 10 9 8 8 8 7 6 5 4 4 4 3 2 3 3 3 3 3 3 2 1 1 2 2 2 4 5 5 6 6
8 8 12 18 18 17 17 16 15 14 13 11 10 9 8 7 6 5 5 4 4 4 4 4 4 3 3 3 3 3 4 4 4 2 2 4 4 4 6 8 8 8 8
7 7 11 16 17 17 16 16 15 13 12 11 10 8 7 7 6 6 5 5 5 4 4 3 3 3 4 4 5 4 4 5 4 3 2 3 4 6 9 11 10 10 10
9 7 8 16 17 16 15 15 14 13 11 10 9 8 7 6 7 6 6 5 5 5 4 4 4 4 5 6 6 6 6 6 5 3 3 3 5 7 10 11 12 13 13
8 6 5 7 12 15 14 13 12 11 10 9 8 8 7 6 6 6 6 7 7 7 6 6 6 7 6 7 8 8 8 8 6 4 4 4 7 9 10 10 13 14 14
6 5 4 4 5 6 7 11 11 10 9 9 8 8 8 7 7 7 6 7 9 9 9 8 9 9 8 8 9 9 10 9 7 5 5 6 9 11 10 9 11 13 14
7 6 5 4 4 4 4 6 9 9 9 8 7 8 6 2 3 4 5 8 10 11 10 10 11 11 10 10 11 11 11 5 6 6 6 9 12 13 12 11 11 15 15
14 10 7 5 5 6 5 4 4 5 5 5 4 3 2 2 2 4 6 10 11 12 11 11 11 12 9 5 7 9 6 6 6 7 8 14 15 14 14 13 12 12 13
12 10 9 6 5 5 5 5 4 3 3 4 4 4 2 2 2 3 2 4 5 7 5 6 6 5 5 5 5 6 6 6 5 7 9 15 14 14 15 14 13 12 12
12 11 9 8 7 6 5 4 5 5 5 4 4 5 3 2 3 3 3 3 3 3 4 4 4 4 6 7 8 8 8 7 7 6 8 15 14 14 15 14 12 12 13
15 14 12 11 9 8 6 5 6 6 6 7 6 6 6 5 4 4 3 3 4 3 4 4 5 5 6 7 7 9 10 9 9 7 6 14 15 14 14 14 13 14 15
12 11 10 11 11 11 9 7 5 5 6 5 5 7 8 6 5 4 4 4 4 4 4 4 4 4 5 5 7 8 9 8 8 8 7 9 15 15 14 14 14 13 13
10 8 8 9 9 10 11 10 7 7 6 6 6 7 8 7 7 6 5 5 4 3 4 4 5 4 4 5 7 7 7 8 8 9 8 7 9 12 14 13 14 12 12
3 3 6 7 9 11 11 11 8 7 7 7 7 7 9 9 9 6 5 5 4 3 3 4 4 4 5 5 5 6 7 6 8 8 8 8 7 7 9 11 12 12 13
5 7 8 8 8 8 8 7 9 9 9 7 6 6 7 7 7 6 5 6 5 4 4 4 4 4 5 6 5 6 6 7 8 7 9 9 8 8 6 8 11 11 13
2 3 6 7 8 8 6 5 6 5 6 6 6 6 6 5 6 6 5 5 4 4 5 4 5 4 5 6 5 6 6 7 7 7 9 8 7 8 6 6 6 7 11
10 6 4 3 4 5 6 5 6 6 4 4 5 6 6 6 6 6 4 4 3 3 5 4 4 6 5 2 3 5 6 8 8 8 8 7 7 6 6 5 4 5 6
12 9 3 1 1 3 4 5 5 4 2 2 2 3 4 4 4 3 1 1 3 3 5 5 5 5 4 4 3 3 5 6 6 6 6 6 6 4 6 6 6 6 6
11 7 3 2 6 6 6 4 1 1 2 2 2 1 2 3 2 1 2 2 3 3 5 6 6 8 8 5 7 6 6 5 2 3 3 4 4 3 4 4 6 6 6
11 7 5 6 11 11 6 4 5 3 5 5 2 2 1 3 4 2 2 2 3 3 4 5 6 6 7 6 5 7 8 4 2 3 3 2 2 3 4 4 6 7 6
7 5 5 7 7 5 5 3 5 8 10 4 2 2 1 3 4 3 1 2 2 2 3 3 4 4 4 5 5 3 3 4 4 4 5 2 2 3 4 5 6 6 5
6 5 5 7 8 6 2 4 3 7 10 6 4 2 2 2 3 1 1 2 2 2 3 3 3 3 4 3 3 3 2 2 3 4 6 5 4 3 3 4 6 6 4
Wind_Direction
165 164 158 154 148 144 138 133 128 122 116 111 112 115 117 122 126 129 127 128 128 123 110 100 102 104 105 109 111 108 107 113 120 117 110 108 111 110 110 107 103 102 104
150 159 156 156 150 147 143 140 137 132 127 122 119 121 124 128 128 125 127 130 130 129 120 112 110 110 110 111 116 120 119 120 131 124 110 95 102 108 112 115 113 110 109
144 154 154 157 153 151 148 147 145 142 138 134 130 129 131 135 139 136 134 135 137 136 132 132 137 138 131 131 133 135 137 134 123 119 98 68 52 82 124 126 130 128 124
144 149 151 155 155 156 155 154 152 149 147 145 143 141 140 140 143 148 148 148 149 152 152 147 146 157 158 161 160 162 166 165 158 150 86 63 354 330 177 159 159 159 155
136 140 152 156 158 161 160 158 159 159 160 156 150 146 145 143 144 153 159 161 163 169 182 182 176 185 196 207 187 191 201 222 227 232 170 230 258 257 227 203 208 202 186
132 137 155 156 159 162 164 164 166 166 166 163 155 153 156 155 156 160 169 178 183 195 209 197 194 211 227 238 228 227 227 234 238 230 233 250 250 244 232 229 228 227 219
128 141 159 158 162 166 169 170 169 171 171 170 166 165 170 173 175 178 187 210 208 202 218 231 220 229 244 254 258 253 253 254 260 257 261 270 260 260 262 243 223 224 228
142 145 158 165 168 170 171 172 174 175 176 177 178 179 187 196 200 193 202 221 236 227 217 236 249 256 262 259 261 264 262 258 260 267 273 278 278 286 286 241 215 218 222
147 141 152 166 172 173 175 177 179 180 180 184 188 188 196 212 222 218 223 227 232 235 235 241 259 268 274 268 264 264 266 265 260 251 257 259 266 277 287 249 222 220 220
153 146 149 153 161 160 174 185 186 189 192 195 198 196 202 216 226 236 235 241 243 242 242 247 259 266 264 262 264 268 270 269 270 265 255 252 260 268 276 267 235 230 228
171 165 160 157 145 138 146 185 187 194 200 205 209 211 207 207 239 250 246 248 251 254 254 256 262 265 265 262 259 261 267 262 264 266 260 256 261 265 266 261 248 243 243
188 187 181 167 158 155 158 159 162 182 185 189 192 201 187 183 223 244 249 255 256 260 262 264 263 264 264 259 262 263 261 257 255 259 255 253 254 256 261 257 265 251 244
192 195 193 174 166 170 170 163 169 173 173 182 187 185 191 206 222 247 268 270 270 267 266 264 265 264 260 248 247 246 247 254 251 254 257 262 263 257 254 253 261 247 242
188 196 190 178 179 184 180 179 182 183 177 183 188 189 191 218 227 227 231 244 247 249 246 248 245 242 257 258 251 254 251 251 248 249 255 260 261 255 253 256 257 250 248
190 193 183 181 184 188 191 193 195 197 192 187 187 196 199 209 222 232 240 244 250 245 243 250 245 241 252 257 251 252 255 252 253 242 246 261 266 260 254 251 251 248 249
192 198 189 191 194 190 196 199 203 204 205 196 198 203 203 208 215 220 236 246 255 251 248 245 246 245 249 254 261 252 255 260 257 248 242 253 258 258 256 253 247 247 249
195 192 193 198 200 201 203 199 198 205 197 201 212 213 212 211 213 216 226 238 247 256 262 255 254 256 261 255 258 261 261 260 260 257 247 240 248 253 252 248 248 243 236
194 190 205 210 206 209 208 203 198 204 203 203 205 209 215 216 210 210 219 231 234 238 240 248 252 260 259 253 255 261 264 262 258 259 259 248 239 241 250 249 244 238 237
197 204 205 204 204 213 222 218 206 200 204 203 192 199 205 202 201 197 216 229 230 241 243 241 247 236 255 258 260 267 263 265 268 265 261 257 245 236 235 245 249 241 238
277 248 228 205 196 195 202 218 237 218 201 194 192 190 193 196 199 200 213 230 234 247 261 258 262 258 254 262 267 270 268 264 261 260 258 259 253 247 240 240 252 252 246
9 360 314 240 215 193 192 193 203 211 199 197 208 196 189 191 191 194 196 215 227 244 266 278 286 281 270 242 260 264 257 256 255 254 247 246 247 244 241 236 240 249 248
356 355 343 244 271 274 243 216 206 173 188 205 223 220 187 171 153 163 115 350 323 312 300 283 268 276 270 215 231 274 281 273 253 247 236 232 241 241 246 243 230 241 246
263 275 285 294 270 261 275 244 228 153 179 111 104 41 359 350 4 22 24 346 302 284 283 284 273 268 274 248 219 237 262 259 283 285 269 249 246 243 252 253 254 257 256
245 246 243 227 237 229 199 254 232 120 65 72 90 105 44 337 305 335 348 311 295 293 283 280 285 283 278 280 259 233 241 241 232 294 309 304 285 256 255 257 257 251 243
284 273 264 260 254 237 133 238 237 106 94 95 116 84 26 290 281 268 322 309 308 301 296 312 327 311 286 285 285 278 246 239 228 225 264 290 294 259 250 251 263 263 247
313 317 312 299 287 274 126 136 149 139 134 152 150 180 230 243 252 290 337 342 329 316 305 318 324 324 318 301 287 268 250 240 239 226 239 245 255 266 272 270 268 264 260